| time (UTC) | temp F | wind direction | speed MPH | gust MPH | rain 1hr in | rain 24hr in | rain mn in | humidity % | barometer mb |
| 20260504222029 | 55 | 219 | 0.0 | 5.0 | 0.00 | 0.06 | 0.06 | 85 | 1020.3 |
| 20260504221532 | 54 | 199 | 0.0 | 5.0 | 0.00 | 0.06 | 0.06 | 86 | 1020.4 |
| 20260504221028 | 54 | 208 | 0.0 | 4.0 | 0.00 | 0.06 | 0.06 | 87 | 1020.4 |
| 20260504220028 | 54 | 230 | 2.0 | 7.0 | 0.00 | 0.06 | 0.06 | 87 | 1020.5 |
| 20260504215528 | 53 | 202 | 0.0 | 5.0 | 0.00 | 0.06 | 0.06 | 88 | 1020.4 |
| 20260504215028 | 53 | 250 | 0.0 | 6.0 | 0.01 | 0.06 | 0.06 | 89 | 1020.6 |
| 20260504214527 | 53 | 223 | 0.0 | 6.0 | 0.01 | 0.06 | 0.06 | 88 | 1020.6 |
| 20260504214027 | 53 | 275 | 0.0 | 8.0 | 0.01 | 0.06 | 0.06 | 89 | 1020.7 |
| 20260504213527 | 53 | 191 | 0.0 | 8.0 | 0.01 | 0.06 | 0.06 | 90 | 1020.7 |
| 20260504213045 | 53 | 241 | 0.0 | 5.0 | 0.03 | 0.06 | 0.06 | 90 | 1020.7 |
| 20260504212528 | 52 | 242 | 0.0 | 5.0 | 0.03 | 0.06 | 0.06 | 90 | 1020.7 |
| 20260504212027 | 52 | 220 | 0.0 | 5.0 | 0.03 | 0.06 | 0.06 | 90 | 1020.6 |
| 20260504211526 | 52 | 247 | 0.0 | 4.0 | 0.03 | 0.06 | 0.06 | 90 | 1020.6 |
| 20260504211026 | 52 | 276 | 0.0 | 6.0 | 0.05 | 0.06 | 0.06 | 91 | 1020.7 |
| 20260504210057 | 52 | 240 | 0.0 | 1.0 | 0.05 | 0.06 | 0.06 | 90 | 1020.7 |
| 20260504205559 | 51 | 259 | 0.0 | 5.0 | 0.05 | 0.06 | 0.06 | 90 | 1020.6 |
| 20260504205057 | 51 | 294 | 0.0 | 5.0 | 0.05 | 0.06 | 0.06 | 90 | 1020.7 |
| 20260504204558 | 51 | 296 | 0.0 | 4.0 | 0.05 | 0.05 | 0.05 | 90 | 1020.6 |
| 20260504204056 | 51 | 274 | 0.0 | 2.0 | 0.05 | 0.05 | 0.05 | 90 | 1020.7 |
| 20260504203559 | 51 | 299 | 0.0 | 3.0 | 0.05 | 0.05 | 0.05 | 89 | 1020.7 |
| 20260504203117 | 51 | 306 | 0.0 | 4.0 | 0.04 | 0.04 | 0.04 | 89 | 1020.8 |
| 20260504202558 | 51 | 287 | 1.0 | 5.0 | 0.03 | 0.03 | 0.03 | 88 | 1021.1 |
| 20260504202056 | 51 | 306 | 1.0 | 7.0 | 0.03 | 0.03 | 0.03 | 88 | 1021.0 |
| 20260504201555 | 51 | 330 | 2.0 | 8.0 | 0.03 | 0.03 | 0.03 | 88 | 1021.0 |
| 20260504201057 | 51 | 292 | 3.0 | 8.0 | 0.03 | 0.03 | 0.03 | 88 | 1020.8 |
| 20260504200025 | 51 | 335 | 2.0 | 8.0 | 0.01 | 0.01 | 0.01 | 88 | 1020.7 |
| 20260504195524 | 51 | 300 | 3.0 | 8.0 | 0.01 | 0.01 | 0.01 | 87 | 1020.7 |
| 20260504195025 | 51 | 285 | 1.0 | 10.0 | 0.01 | 0.01 | 0.01 | 87 | 1020.7 |
| 20260504194524 | 51 | 296 | 3.0 | 10.0 | 0.00 | 0.00 | 0.00 | 86 | 1021.0 |
| 20260504194024 | 51 | 294 | 3.0 | 9.0 | 0.00 | 0.00 | 0.00 | 86 | 1020.9 |
| 20260504193524 | 52 | 321 | 3.0 | 9.0 | 0.00 | 0.00 | 0.00 | 86 | 1020.8 |
| 20260504193024 | 52 | 326 | 1.0 | 10.0 | 0.00 | 0.00 | 0.00 | 86 | 1020.7 |
| 20260504192523 | 52 | 294 | 5.0 | 10.0 | 0.00 | 0.00 | 0.00 | 84 | 1020.7 |
| 20260504192023 | 53 | 303 | 3.0 | 11.0 | 0.00 | 0.00 | 0.00 | 84 | 1020.7 |
| 20260504191523 | 53 | 307 | 4.0 | 11.0 | 0.00 | 0.00 | 0.00 | 83 | 1020.6 |
| 20260504191023 | 53 | 307 | 2.0 | 10.0 | 0.00 | 0.00 | 0.00 | 83 | 1020.6 |
| 20260504190021 | 54 | 305 | 4.0 | 8.0 | 0.00 | 0.00 | 0.00 | 81 | 1020.5 |
| 20260504185524 | 54 | 277 | 3.0 | 8.0 | 0.00 | 0.00 | 0.00 | 80 | 1020.6 |
| 20260504185021 | 54 | 309 | 1.0 | 9.0 | 0.00 | 0.00 | 0.00 | 80 | 1020.6 |
| 20260504184521 | 55 | 323 | 2.0 | 9.0 | 0.00 | 0.00 | 0.00 | 80 | 1020.7 |
| 20260504184020 | 55 | 296 | 1.0 | 10.0 | 0.00 | 0.00 | 0.00 | 79 | 1020.8 |
| 20260504183521 | 55 | 339 | 2.0 | 10.0 | 0.00 | 0.00 | 0.00 | 80 | 1020.8 |
| 20260504183023 | 54 | 259 | 1.0 | 9.0 | 0.00 | 0.00 | 0.00 | 79 | 1020.6 |
| 20260504182523 | 54 | 274 | 3.0 | 10.0 | 0.00 | 0.00 | 0.00 | 80 | 1020.8 |
| 20260504182020 | 54 | 311 | 2.0 | 10.0 | 0.00 | 0.00 | 0.00 | 79 | 1020.8 |
| 20260504181518 | 54 | 289 | 1.0 | 10.0 | 0.00 | 0.00 | 0.00 | 80 | 1020.8 |
| 20260504181018 | 54 | 310 | 4.0 | 10.0 | 0.00 | 0.00 | 0.00 | 79 | 1020.8 |
| 20260504180019 | 54 | 296 | 3.0 | 8.0 | 0.00 | 0.00 | 0.00 | 79 | 1020.6 |
| 20260504175517 | 54 | 238 | 0.0 | 6.0 | 0.00 | 0.00 | 0.00 | 81 | 1020.5 |
| 20260504175021 | 54 | 257 | 1.0 | 8.0 | 0.00 | 0.00 | 0.00 | 80 | 1020.5 |
| 20260504174518 | 54 | 304 | 1.0 | 8.0 | 0.00 | 0.00 | 0.00 | 79 | 1020.5 |
| 20260504174020 | 54 | 314 | 0.0 | 8.0 | 0.00 | 0.00 | 0.00 | 79 | 1020.5 |
| 20260504173518 | 54 | 251 | 0.0 | 8.0 | 0.00 | 0.00 | 0.00 | 79 | 1020.5 |
| 20260504173031 | 54 | 272 | 0.0 | 7.0 | 0.00 | 0.00 | 0.00 | 80 | 1020.5 |
| 20260504172517 | 54 | 251 | 0.0 | 5.0 | 0.00 | 0.00 | 0.00 | 80 | 1020.5 |
| 20260504172016 | 53 | 231 | 1.0 | 6.0 | 0.00 | 0.00 | 0.00 | 81 | 1020.5 |
| 20260504171522 | 53 | 242 | 1.0 | 6.0 | 0.00 | 0.00 | 0.00 | 80 | 1020.6 |
| 20260504171015 | 53 | 223 | 1.0 | 7.0 | 0.00 | 0.00 | 0.00 | 80 | 1020.5 |
| 20260504151008 | 50 | 209 | 0.0 | 5.0 | 0.00 | 0.00 | 0.00 | 86 | 1020.2 |
| 20260504141002 | 49 | 211 | 4.0 | 11.0 | 0.00 | 0.00 | 0.00 | 89 | 1019.7 |
| 20260504140110 | 49 | 217 | 6.0 | 12.0 | 0.00 | 0.00 | 0.00 | 89 | 1019.7 |
| 20260504081533 | 50 | 283 | 3.0 | 10.0 | 0.00 | 0.00 | 0.00 | 90 | 1019.3 |
| 20260504081033 | 50 | 211 | 2.0 | 12.0 | 0.00 | 0.00 | 0.00 | 90 | 1019.3 |
| 20260504050015 | 52 | 200 | 3.0 | 13.0 | 0.00 | 0.00 | 0.00 | 78 | 1019.1 |
| 20260504045512 | 52 | 263 | 3.0 | 12.0 | 0.00 | 0.00 | 0.00 | 79 | 1018.9 |
| 20260504045016 | 52 | 235 | 4.0 | 12.0 | 0.00 | 0.00 | 0.00 | 80 | 1018.9 |
| 20260504044530 | 52 | 201 | 4.0 | 13.0 | 0.00 | 0.00 | 0.00 | 79 | 1018.9 |
| 20260504044011 | 52 | 217 | 5.0 | 21.0 | 0.00 | 0.00 | 0.00 | 79 | 1018.9 |
| 20260504043510 | 52 | 254 | 6.0 | 21.0 | 0.00 | 0.00 | 0.00 | 79 | 1018.8 |
| 20260504043011 | 52 | 202 | 4.0 | 12.0 | 0.00 | 0.00 | 0.00 | 79 | 1018.7 |
| 20260504042509 | 52 | 200 | 4.0 | 12.0 | 0.00 | 0.00 | 0.00 | 79 | 1018.6 |
| 20260504042009 | 52 | 300 | 1.0 | 11.0 | 0.00 | 0.00 | 0.00 | 80 | 1018.6 |
| 20260504041507 | 52 | 205 | 3.0 | 11.0 | 0.00 | 0.00 | 0.00 | 80 | 1018.6 |
| 20260504041008 | 52 | 238 | 3.0 | 14.0 | 0.00 | 0.00 | 0.00 | 80 | 1018.5 |
| 20260504040006 | 52 | 340 | 2.0 | 11.0 | 0.00 | 0.00 | 0.00 | 80 | 1018.4 |
| 20260504035511 | 52 | 196 | 2.0 | 11.0 | 0.00 | 0.00 | 0.00 | 80 | 1018.3 |
| 20260504035006 | 52 | 340 | 0.0 | 11.0 | 0.00 | 0.00 | 0.00 | 80 | 1018.2 |
| 20260504034503 | 52 | 317 | 2.0 | 11.0 | 0.00 | 0.00 | 0.00 | 80 | 1018.1 |
| 20260504034003 | 53 | 224 | 3.0 | 11.0 | 0.00 | 0.00 | 0.00 | 80 | 1017.9 |
| 20260504033503 | 53 | 203 | 2.0 | 11.0 | 0.00 | 0.00 | 0.00 | 80 | 1017.8 |
| 20260504033002 | 53 | 225 | 2.0 | 10.0 | 0.00 | 0.00 | 0.00 | 80 | 1017.7 |
| 20260504032601 | 53 | 292 | 2.0 | 11.0 | 0.00 | 0.00 | 0.00 | 79 | 1017.7 |
| 20260504032059 | 53 | 316 | 4.0 | 11.0 | 0.00 | 0.00 | 0.00 | 79 | 1017.7 |
| 20260504031559 | 53 | 220 | 4.0 | 11.0 | 0.00 | 0.00 | 0.00 | 79 | 1017.4 |
| 20260504031059 | 53 | 262 | 4.0 | 11.0 | 0.00 | 0.00 | 0.00 | 78 | 1017.4 |
| 20260504030658 | 53 | 211 | 4.0 | 10.0 | 0.00 | 0.00 | 0.00 | 77 | 1017.3 |
| 20260504030058 | 53 | 194 | 3.0 | 14.0 | 0.00 | 0.00 | 0.00 | 77 | 1017.3 |
| 20260504025557 | 54 | 186 | 3.0 | 14.0 | 0.00 | 0.00 | 0.00 | 76 | 1017.3 |
| 20260504025056 | 54 | 205 | 5.0 | 13.0 | 0.00 | 0.00 | 0.00 | 75 | 1017.4 |
| 20260504024605 | 54 | 194 | 4.0 | 10.0 | 0.00 | 0.00 | 0.00 | 75 | 1017.3 |
| 20260504024055 | 54 | 220 | 1.0 | 9.0 | 0.00 | 0.00 | 0.00 | 75 | 1017.4 |
| 20260504023555 | 55 | 265 | 0.0 | 11.0 | 0.00 | 0.00 | 0.00 | 76 | 1017.3 |
| 20260504023055 | 55 | 191 | 2.0 | 11.0 | 0.00 | 0.00 | 0.00 | 75 | 1017.2 |
| 20260504022555 | 55 | 227 | 0.0 | 9.0 | 0.00 | 0.00 | 0.00 | 75 | 1017.3 |
| 20260504022059 | 55 | 170 | 3.0 | 12.0 | 0.00 | 0.00 | 0.00 | 74 | 1017.3 |
| 20260504021554 | 55 | 205 | 4.0 | 13.0 | 0.00 | 0.00 | 0.00 | 74 | 1017.2 |
| 20260504021054 | 55 | 257 | 5.0 | 13.0 | 0.00 | 0.00 | 0.00 | 73 | 1017.3 |
| 20260504020654 | 56 | 196 | 4.0 | 12.0 | 0.00 | 0.00 | 0.00 | 73 | 1017.2 |
| 20260504020054 | 56 | 191 | 3.0 | 13.0 | 0.00 | 0.00 | 0.00 | 73 | 1017.3 |
| 20260504015554 | 56 | 236 | 1.0 | 15.0 | 0.00 | 0.00 | 0.00 | 73 | 1017.2 |
| 20260504015056 | 56 | 239 | 7.0 | 15.0 | 0.00 | 0.00 | 0.00 | 72 | 1017.2 |
| 20260504014553 | 56 | 190 | 2.0 | 14.0 | 0.00 | 0.00 | 0.00 | 73 | 1017.1 |
| 20260504014056 | 56 | 253 | 3.0 | 14.0 | 0.00 | 0.00 | 0.00 | 73 | 1017.1 |
| 20260504013553 | 57 | 326 | 2.0 | 11.0 | 0.00 | 0.00 | 0.00 | 73 | 1017.1 |
| 20260504013053 | 57 | 328 | 3.0 | 11.0 | 0.00 | 0.00 | 0.00 | 72 | 1017.2 |
| 20260504012552 | 57 | 217 | 4.0 | 10.0 | 0.00 | 0.00 | 0.00 | 71 | 1017.1 |
| 20260504012051 | 57 | 228 | 3.0 | 12.0 | 0.00 | 0.00 | 0.00 | 70 | 1017.0 |
| 20260504011552 | 58 | 244 | 5.0 | 12.0 | 0.00 | 0.00 | 0.00 | 70 | 1016.8 |
| 20260504011050 | 58 | 185 | 3.0 | 12.0 | 0.00 | 0.00 | 0.00 | 71 | 1016.8 |
| 20260504010650 | 58 | 243 | 5.0 | 12.0 | 0.00 | 0.00 | 0.00 | 69 | 1016.9 |
| 20260504010056 | 58 | 205 | 5.0 | 12.0 | 0.00 | 0.00 | 0.00 | 69 | 1016.9 |
| 20260504005550 | 59 | 205 | 5.0 | 11.0 | 0.00 | 0.00 | 0.00 | 69 | 1016.9 |
| 20260504005050 | 59 | 207 | 5.0 | 11.0 | 0.00 | 0.00 | 0.00 | 68 | 1016.8 |
| 20260504004550 | 59 | 203 | 6.0 | 11.0 | 0.00 | 0.00 | 0.00 | 68 | 1016.8 |
| 20260504004050 | 60 | 186 | 6.0 | 12.0 | 0.00 | 0.00 | 0.00 | 66 | 1016.8 |
| 20260504003555 | 60 | 212 | 2.0 | 11.0 | 0.00 | 0.00 | 0.00 | 66 | 1016.8 |
| 20260504003051 | 61 | 316 | 1.0 | 10.0 | 0.00 | 0.00 | 0.00 | 65 | 1016.7 |
| 20260504002550 | 61 | 212 | 2.0 | 10.0 | 0.00 | 0.00 | 0.00 | 65 | 1016.7 |
| 20260504002050 | 61 | 217 | 0.0 | 6.0 | 0.00 | 0.00 | 0.00 | 64 | 1016.7 |
| 20260504001608 | 62 | 217 | 2.0 | 7.0 | 0.00 | 0.00 | 0.00 | 62 | 1016.7 |
| 20260504001050 | 63 | 314 | 0.0 | 6.0 | 0.00 | 0.00 | 0.00 | 62 | 1016.7 |
| 20260504000650 | 64 | 282 | 1.0 | 6.0 | 0.00 | 0.00 | 0.00 | 61 | 1016.6 |
| 20260504000050 | 64 | 288 | 1.0 | 7.0 | 0.00 | 0.00 | 0.00 | 62 | 1016.6 |
| 20260503235550 | 64 | 294 | 0.0 | 7.0 | 0.00 | 0.00 | 0.00 | 61 | 1016.5 |
| 20260503235054 | 64 | 279 | 1.0 | 7.0 | 0.00 | 0.00 | 0.00 | 60 | 1016.4 |
| 20260503234550 | 64 | 221 | 0.0 | 8.0 | 0.00 | 0.00 | 0.00 | 62 | 1016.4 |
| 20260503234049 | 64 | 274 | 2.0 | 8.0 | 0.00 | 0.00 | 0.00 | 62 | 1016.3 |
| 20260503233548 | 64 | 280 | 2.0 | 8.0 | 0.00 | 0.00 | 0.00 | 63 | 1016.3 |
| 20260503233049 | 64 | 300 | 1.0 | 6.0 | 0.00 | 0.00 | 0.00 | 63 | 1016.2 |
| 20260503232553 | 64 | 306 | 1.0 | 6.0 | 0.00 | 0.00 | 0.00 | 65 | 1016.1 |
| 20260503232048 | 63 | 274 | 1.0 | 9.0 | 0.00 | 0.00 | 0.00 | 67 | 1016.1 |
| 20260503231549 | 62 | 241 | 2.0 | 10.0 | 0.00 | 0.00 | 0.00 | 69 | 1016.0 |
| 20260503231051 | 62 | 292 | 2.0 | 10.0 | 0.00 | 0.00 | 0.00 | 68 | 1016.0 |
| 20260503230648 | 63 | 301 | 1.0 | 9.0 | 0.00 | 0.00 | 0.00 | 66 | 1016.1 |
| 20260503230049 | 63 | 338 | 1.0 | 9.0 | 0.00 | 0.00 | 0.00 | 67 | 1016.2 |
| 20260503225549 | 63 | 277 | 2.0 | 9.0 | 0.00 | 0.00 | 0.00 | 67 | 1016.1 |
| 20260503225049 | 64 | 282 | 2.0 | 9.0 | 0.00 | 0.00 | 0.00 | 65 | 1016.0 |
| 20260503224549 | 64 | 304 | 0.0 | 8.0 | 0.00 | 0.00 | 0.00 | 67 | 1016.0 |
| 20260503224049 | 65 | 261 | 2.0 | 8.0 | 0.00 | 0.00 | 0.00 | 64 | 1015.9 |
| 20260503223549 | 66 | 276 | 1.0 | 7.0 | 0.00 | 0.00 | 0.00 | 64 | 1015.9 |
| 20260503223048 | 65 | 230 | 0.0 | 5.0 | 0.00 | 0.00 | 0.00 | 66 | 1015.9 |
| 20260503222551 | 65 | 282 | 0.0 | 7.0 | 0.00 | 0.00 | 0.00 | 66 | 1016.0 |